Back to catalog

STARLINK-5280

AliveCommunicationsVLEO
NORAD 54166·PAYLOAD·🇺🇸 United States

Launched Oct 28, 2022 from Vandenberg Space Force Base

Loading…

Next Passes (next 24 hours)

TLE

FreshSource: CelesTrak SupGP

Epoch: Sep 15, 2026, 01:50 UTC

1 54166C 22141K   26258.07687500 -.00025121  00000+0 -74208-3 0  2582
2 54166  53.1570 219.3167 0001060  86.4614  68.9054 15.34408888    12

Track STARLINK-5280 in real time with AllMySat

Download on the App Store